User: anonymous   Login
Location: Theydon Bois
(51.6750°N, 0.1050°E)
Time: 10:03:37
(UTC+00:00)
Language:

COSMOS 2487 - Orbit

View from above orbital plane
View from above orbital plane
View from above satellite
View from above satellite

Ground track
Ground track

The orbit data is extracted from the following two-line orbital elements,

1 39194U 13032A   18049.88173631  .00004262  00000-0  12060-3 0  9990
2 39194  74.7163   0.8032 0004809 256.3934 103.6740 15.36580828259409
Epoch (UTC): 18 February 2018 21:09:42
Eccentricity: 0.0004809
inclination: 74.7163°
perigee height: 453 km
apogee height: 459 km
right ascension of ascending node: 0.8032°
argument of perigee: 256.3934°
revolutions per day: 15.36580828
mean anomaly at epoch: 103.6740°
orbit number at epoch: 25940

The dashed part of the orbit path shows where the satellite is in the earth's shadow,  

DLR